ECMWFFLT2_925_spd_000.txt.gz
Wind_Speed
10 11 10 10 9 6 4 4 5 5 6 8 3 4 3 3 2 4 2 2 4 2 4 6 4 7 9 12 12 12 12 12 13 13 12 13 13 13 13 14 15 16 19 24 27 30 31 32 35 37 39 41 41 41 40 39 39 38 37 35 33 30 26
11 9 9 10 9 7 5 6 7 3 2 4 4 2 2 4 1 4 2 3 3 1 3 5 2 7 10 13 14 13 12 12 13 13 13 14 15 15 15 15 15 15 18 23 27 31 34 37 39 41 43 44 44 44 44 43 41 41 40 38 35 32 29
9 6 7 9 7 6 6 6 6 5 4 2 1 3 2 1 2 3 4 4 3 4 5 4 5 9 10 12 12 13 13 13 14 13 13 14 14 13 13 13 12 13 17 23 28 31 34 37 40 42 43 42 42 43 44 45 45 44 42 39 37 34 32
9 5 5 7 7 4 2 3 4 3 4 6 3 3 5 4 3 3 4 5 3 5 6 7 11 10 10 11 11 13 15 15 14 12 12 13 13 13 13 13 14 14 18 25 31 34 36 38 39 39 40 40 40 41 43 44 44 42 40 38 37 35 34
8 7 5 8 9 6 3 4 5 3 0 3 3 2 2 4 4 4 3 3 5 5 4 8 12 11 12 15 15 13 13 13 14 13 14 14 13 14 14 14 15 16 19 27 33 35 36 36 35 35 36 38 39 39 40 41 40 40 40 39 37 36 35
5 6 8 11 12 10 7 6 6 5 3 4 4 3 2 2 5 5 4 4 7 6 4 8 11 11 12 14 14 12 11 14 14 13 14 14 14 15 16 17 17 17 19 25 31 32 31 31 32 34 35 36 37 38 39 39 39 40 41 39 38 37 35
7 7 10 13 13 11 8 6 6 6 5 5 6 5 4 2 3 3 4 3 6 6 5 7 7 8 9 10 13 13 12 14 14 12 13 14 15 16 17 17 17 16 18 24 28 29 29 31 32 34 35 36 37 37 38 37 37 38 39 38 37 36 35
6 7 9 10 10 9 6 4 5 6 6 5 6 5 4 4 4 3 3 3 6 6 4 7 7 8 9 11 13 14 12 11 12 13 13 13 14 15 16 17 16 14 17 21 23 24 27 29 30 33 34 34 35 35 36 36 37 38 37 35 34 33 33
4 5 6 7 6 6 4 3 6 7 7 8 5 3 3 3 4 6 6 4 6 5 1 5 8 10 11 11 11 13 13 11 11 12 12 13 14 14 15 16 15 15 15 16 17 21 25 27 29 32 33 34 35 36 37 37 37 37 35 34 33 32 33
5 6 7 7 5 4 2 4 7 8 9 11 7 3 4 4 4 5 6 5 7 5 1 3 7 11 12 9 8 9 10 11 11 10 10 11 13 15 17 17 16 16 15 14 16 20 25 27 29 31 32 34 35 37 38 38 38 37 35 34 33 33 34
7 8 9 7 7 7 6 6 9 9 9 11 8 6 5 6 4 4 6 6 5 3 4 6 8 11 13 10 7 8 8 9 10 10 10 11 12 14 16 15 14 14 13 14 16 20 25 28 30 33 34 35 36 36 38 39 39 39 36 35 35 35 35
12 11 9 8 9 11 10 10 11 11 9 10 9 7 7 7 7 4 9 7 11 11 11 11 12 12 11 9 9 10 9 8 10 10 11 12 12 11 11 11 13 14 14 15 16 20 26 30 31 33 35 37 39 39 40 40 39 39 37 37 37 37 37
14 13 10 8 10 12 12 12 13 12 11 10 10 10 9 9 8 8 9 11 15 15 13 15 16 15 13 12 11 11 10 8 9 9 10 11 11 11 11 12 13 14 15 16 16 19 25 29 31 32 33 36 37 38 40 40 40 40 39 39 38 39 39
12 12 11 9 9 9 12 15 15 13 12 12 12 12 10 11 10 10 11 14 14 13 15 18 16 13 11 10 9 9 10 10 9 9 10 10 10 12 13 13 14 15 16 17 17 18 22 27 31 32 32 34 36 38 38 39 41 41 41 40 40 41 41
9 10 8 7 8 8 11 14 13 10 10 11 12 12 10 9 8 8 12 14 11 9 11 13 11 8 9 9 8 9 10 10 10 10 10 10 10 10 11 10 11 12 13 14 15 16 20 27 32 32 33 36 38 38 37 39 42 42 42 42 41 39 38
6 6 5 4 4 3 5 9 8 4 4 5 5 5 5 6 6 5 8 11 10 8 5 5 6 8 11 12 10 9 9 9 11 11 10 10 10 10 10 10 11 11 11 11 12 14 20 27 30 33 35 36 35 36 37 40 42 41 40 38 35 34 35
5 5 7 7 6 5 3 7 5 5 5 5 4 3 2 3 6 7 6 9 10 7 7 8 7 9 13 13 11 9 9 9 10 10 9 9 9 9 10 10 11 12 11 11 13 17 21 26 30 34 34 33 35 38 39 40 38 37 37 37 36 38 39
5 5 6 7 6 4 3 7 1 6 9 9 8 5 3 0 4 6 4 6 6 7 10 12 12 11 11 11 8 8 9 9 9 9 9 9 9 9 9 10 11 12 11 12 17 22 25 28 32 35 35 36 38 38 37 37 38 38 37 37 38 37 35
3 2 6 5 3 4 5 6 2 6 10 11 10 7 6 5 6 8 7 4 3 7 9 9 10 8 7 6 5 7 8 8 9 8 8 8 9 9 9 9 10 11 10 12 16 20 25 28 29 30 32 33 33 33 34 35 33 31 30 29 29 29 29
3 3 5 5 7 4 3 2 1 4 7 8 9 9 9 10 7 7 9 8 7 9 8 7 9 8 5 5 3 3 6 7 9 9 8 9 9 9 9 9 10 12 13 16 20 23 27 29 28 28 31 33 33 29 24 19 16 19 24 24 23 21 21
3 5 3 1 2 2 5 2 2 2 2 5 7 6 4 8 8 4 6 9 10 11 10 8 8 8 7 7 4 3 4 6 8 8 8 9 8 7 7 6 9 13 17 21 24 25 26 25 25 26 27 26 23 17 18 20 23 28 30 27 23 19 17
2 5 4 2 3 2 3 5 6 5 1 7 10 7 3 6 9 7 2 9 11 11 11 9 8 8 7 5 1 6 5 3 5 6 6 6 7 7 5 5 7 11 15 17 17 17 17 17 19 19 16 15 17 23 27 30 33 34 31 27 27 27 22
3 6 4 1 3 4 5 7 7 8 4 4 8 8 3 6 10 9 1 8 9 9 9 9 9 8 6 4 5 6 4 1 4 6 5 4 6 10 13 13 13 14 15 15 14 15 16 16 16 16 16 20 25 27 28 32 34 32 30 28 30 31 25
4 4 3 1 2 1 3 7 7 7 3 3 7 5 4 7 10 8 1 6 6 6 6 6 6 7 5 6 5 5 3 1 2 4 5 5 5 7 11 15 16 17 19 20 19 19 20 20 19 20 23 27 29 28 28 30 30 32 34 34 33 33 29
4 3 1 1 1 1 4 6 7 7 4 7 7 4 5 5 7 5 6 8 6 6 7 6 5 5 2 4 1 5 6 6 6 5 3 4 4 4 8 12 14 15 16 19 21 23 25 26 24 25 28 30 30 31 31 29 30 35 37 34 30 32 33
2 2 1 1 1 3 6 6 6 7 6 6 3 4 4 4 5 6 9 9 8 8 9 7 6 5 4 4 5 7 7 7 6 7 6 5 5 4 6 8 11 13 14 17 21 24 27 30 30 30 32 31 30 30 30 31 35 37 34 27 26 33 38
2 3 3 0 2 6 10 7 6 7 5 5 5 1 2 3 5 7 8 7 7 7 7 6 5 5 7 7 6 6 5 5 4 3 1 1 1 4 4 4 9 13 14 15 19 23 28 31 31 33 32 29 27 27 28 33 36 32 25 22 25 31 32
3 3 3 0 3 7 8 4 5 4 3 3 4 4 5 6 6 7 6 7 8 7 7 7 7 8 8 7 6 5 5 5 5 4 3 3 4 5 4 3 9 13 15 17 18 21 26 29 31 33 32 29 27 28 32 35 34 28 23 21 22 24 23
3 4 1 2 4 6 7 8 7 5 6 6 5 8 8 7 7 6 6 8 9 8 9 9 9 9 8 7 7 6 4 3 3 3 4 5 5 5 5 5 4 5 9 17 20 20 23 27 28 26 23 21 19 17 21 25 27 28 25 19 17 18 18
5 5 2 2 3 5 7 7 6 7 7 5 5 8 8 7 7 6 6 8 8 8 8 9 8 7 6 7 6 5 5 4 4 4 4 4 4 5 6 7 6 3 4 10 16 15 14 14 11 8 10 12 13 12 10 8 9 18 21 17 15 15 13
4 3 1 2 3 4 5 6 6 7 7 6 6 7 5 5 6 7 6 7 7 7 7 8 7 6 6 7 6 4 4 5 5 5 3 2 1 4 7 9 11 9 7 7 10 11 11 11 13 15 17 18 17 15 12 9 7 9 16 19 18 17 17
3 2 3 3 2 3 5 5 5 5 6 8 7 7 6 6 7 7 7 8 9 9 9 9 9 9 7 7 6 4 3 3 4 4 5 4 3 0 5 10 13 15 13 10 12 16 17 19 21 21 22 23 22 22 22 20 20 22 21 18 16 15 12
3 1 2 3 3 6 7 6 5 4 5 7 9 9 10 10 11 10 10 10 10 11 10 10 12 11 9 7 7 6 5 5 4 4 5 4 3 1 2 6 11 15 16 17 19 20 20 25 29 30 31 30 28 28 28 26 25 25 22 20 19 17 9
3 3 3 2 3 3 3 5 6 6 5 8 10 10 10 10 9 9 9 9 10 10 10 9 9 10 9 9 8 7 6 6 5 4 4 3 1 3 5 6 9 13 18 22 25 23 23 27 32 32 32 31 29 29 28 27 26 25 19 16 17 13 7
2 2 2 3 5 4 0 3 5 5 5 8 10 8 8 8 7 6 6 7 6 5 7 7 5 6 8 8 8 8 7 6 7 6 6 6 6 8 10 11 13 15 18 23 26 26 25 28 31 31 30 29 27 24 20 17 16 16 11 4 1 3 7
3 4 3 2 5 5 3 2 4 4 4 6 7 7 7 8 7 7 7 6 4 1 5 6 5 5 6 7 8 8 8 6 6 7 8 9 11 12 12 14 17 18 19 22 25 26 27 29 29 26 22 17 14 13 14 12 9 6 6 13 19 21 22
3 4 5 2 6 4 2 3 5 6 6 6 7 7 8 9 8 7 8 7 5 4 5 5 7 9 9 9 9 8 8 7 6 7 8 9 10 12 14 16 19 21 23 26 29 30 30 30 29 26 21 18 19 22 21 17 14 13 15 21 26 26 25

ECMWFFLT2_925_spd_006.txt.gz
Wind_Speed
6 8 6 6 7 5 3 3 4 5 6 7 3 2 2 3 2 2 2 3 4 2 6 7 2 4 7 8 9 12 11 8 10 11 12 12 13 14 14 14 15 15 17 21 25 26 27 28 29 32 35 37 39 39 38 39 40 37 36 36 37 36 35
8 7 7 5 6 7 5 5 7 3 3 3 3 2 1 2 3 4 2 5 3 1 3 6 3 6 10 9 8 10 8 9 12 12 12 14 15 15 15 15 15 15 16 20 25 27 29 32 33 36 39 40 39 38 38 38 37 37 37 37 37 36 36
6 4 6 6 6 4 3 5 7 5 3 2 1 3 2 1 3 3 3 3 3 4 5 5 5 9 13 11 7 7 8 11 14 14 14 15 14 13 13 14 14 14 15 19 24 27 29 32 35 37 38 37 35 35 36 36 36 36 34 33 34 35 35
4 4 6 8 8 3 2 3 4 3 3 5 3 3 4 4 4 3 3 3 3 6 7 7 10 12 13 11 8 8 12 15 14 12 12 13 13 13 13 14 14 14 15 21 27 30 31 34 36 37 36 35 35 36 35 35 34 33 31 31 34 35 36
3 4 6 11 12 6 3 4 5 2 1 3 2 2 4 4 4 4 3 3 5 7 6 9 13 12 12 12 11 11 12 13 12 10 11 12 12 13 14 14 14 14 16 21 28 30 32 33 34 34 33 33 36 36 34 34 34 32 32 34 35 36 37
4 7 7 9 11 9 8 6 6 6 4 4 3 4 1 2 3 5 5 4 7 7 6 9 12 10 10 12 12 11 11 11 11 10 13 14 13 13 14 14 14 14 14 19 25 27 28 28 29 31 31 33 34 34 35 36 35 35 36 36 37 38 37
6 9 7 4 7 9 9 7 7 7 6 6 6 7 3 1 1 2 3 3 7 6 5 9 10 8 7 8 9 9 9 10 12 12 13 12 12 13 14 13 13 13 13 18 23 25 27 28 30 32 33 34 34 36 37 37 36 38 39 38 38 37 36
6 8 6 3 2 5 6 6 7 8 8 8 7 6 5 4 3 3 2 3 6 6 3 5 7 6 6 7 9 10 8 8 10 12 11 10 11 12 12 12 11 10 12 16 18 20 24 27 29 31 32 33 34 36 36 36 37 39 39 36 36 35 36
6 7 5 4 2 4 5 5 6 9 11 10 4 3 4 5 6 7 5 4 6 6 4 2 4 5 6 8 8 9 9 8 9 10 9 9 9 10 10 11 10 10 12 13 14 17 22 25 27 30 31 33 34 34 34 35 36 37 36 35 34 35 36
8 8 7 6 4 4 3 3 6 8 10 12 7 3 4 6 5 6 6 5 6 7 4 2 3 6 7 8 7 7 8 8 8 8 8 8 8 10 12 12 11 12 12 12 13 16 21 24 26 28 30 31 32 32 33 34 34 33 33 33 33 34 35
10 9 9 6 5 5 4 5 8 8 9 12 9 5 6 7 4 4 7 7 6 7 6 6 6 7 8 8 7 8 8 8 8 8 8 8 8 9 11 11 11 11 11 12 14 16 20 24 26 28 29 29 30 30 32 33 32 30 30 31 33 34 35
14 13 12 8 6 7 8 9 10 10 10 12 10 7 7 7 7 6 9 6 8 9 9 10 9 7 7 7 9 11 10 9 8 8 7 8 8 8 9 9 11 11 12 12 12 14 19 22 23 25 26 27 28 29 30 30 30 29 30 32 34 34 35
16 16 14 11 8 6 7 8 9 10 11 13 14 12 10 9 8 9 8 9 11 10 10 12 12 11 12 12 11 9 6 5 6 7 9 10 10 10 11 11 11 11 12 12 12 13 16 19 21 22 24 25 26 27 28 28 29 31 32 34 35 35 36
15 16 13 11 11 9 7 7 8 9 10 13 14 13 12 13 12 11 10 13 13 10 11 13 12 10 9 6 5 6 6 7 9 10 11 12 13 13 12 12 11 12 12 11 10 10 12 16 19 20 21 22 24 25 26 26 28 31 33 34 34 34 34
11 12 11 9 11 12 12 12 10 8 7 8 9 8 6 8 10 8 8 10 11 9 8 9 5 3 5 5 7 9 10 10 11 11 12 13 14 13 12 11 10 10 9 8 8 8 11 16 19 19 20 21 22 24 24 25 28 30 31 31 31 32 33
7 7 10 11 9 9 11 14 13 9 7 7 6 5 5 7 8 5 6 6 9 9 6 5 2 4 7 8 9 10 9 9 12 13 15 16 15 12 11 11 10 9 9 9 10 10 12 15 17 19 20 19 21 23 24 25 27 27 28 30 30 30 30
6 6 9 9 6 4 7 11 12 11 9 7 5 4 6 8 6 6 6 8 9 6 6 6 5 6 9 10 10 9 10 11 14 15 16 14 12 11 11 10 10 10 9 9 10 10 12 15 18 20 21 21 23 25 24 24 24 26 28 29 28 26 25
7 6 5 4 4 5 8 7 8 12 13 12 8 4 3 3 2 3 6 7 5 3 7 9 10 8 6 6 5 3 4 8 11 13 12 10 9 9 9 8 9 8 7 7 9 11 14 18 20 21 21 23 25 24 22 22 24 26 27 26 24 22 22
4 1 6 4 5 8 6 2 1 6 11 13 10 6 4 2 4 4 6 7 7 5 6 7 7 4 1 4 4 4 1 5 7 7 7 8 9 8 7 8 8 7 7 7 9 14 19 21 20 20 21 24 24 22 21 23 24 25 25 24 22 22 23
2 2 5 7 7 5 3 2 5 4 5 9 10 7 3 3 3 3 6 8 7 6 6 5 4 6 5 6 6 5 4 2 6 7 7 8 9 9 9 9 9 10 12 13 15 18 20 20 20 20 21 21 20 20 20 22 23 24 23 22 22 22 25
3 3 3 3 1 1 1 2 2 2 3 5 6 4 1 2 3 1 5 6 6 5 4 4 7 7 6 6 5 6 7 5 3 6 8 8 8 8 8 9 10 14 16 18 18 18 17 17 19 19 18 18 18 17 18 19 21 22 22 23 24 25 27
2 4 2 1 2 3 4 4 3 1 2 4 4 5 2 3 7 4 3 4 3 2 3 5 8 8 7 5 5 6 7 6 1 4 5 6 6 5 6 6 6 9 12 13 13 13 13 13 15 15 15 16 17 17 18 20 21 23 23 24 24 26 27
2 5 4 3 4 4 5 6 5 2 0 4 3 5 2 5 9 7 3 1 2 4 4 2 4 7 6 2 4 6 6 3 2 6 7 7 7 7 7 6 6 7 10 11 10 11 11 11 13 16 17 18 19 19 20 20 21 21 19 18 20 23 25
1 4 3 1 2 2 3 4 5 5 2 2 5 5 2 5 8 7 4 3 1 6 8 6 7 7 5 3 2 6 4 2 5 6 8 8 7 8 9 8 9 11 11 9 8 6 6 8 11 14 15 15 14 13 14 15 15 14 12 12 16 20 22
3 1 4 1 2 2 3 6 8 6 3 4 5 5 4 4 6 6 6 6 4 5 10 10 7 5 4 2 3 5 3 8 10 9 9 10 10 11 12 12 12 12 11 9 8 4 1 3 5 9 11 10 8 9 11 12 11 10 10 11 14 18 20
4 1 3 1 1 1 6 11 9 3 4 4 3 3 2 2 4 6 7 8 8 10 12 10 7 5 5 5 6 8 10 11 11 11 11 12 14 15 16 16 15 13 11 11 10 8 5 3 5 9 11 11 11 12 13 12 11 11 12 13 16 19 21
3 2 3 3 1 3 11 14 7 3 5 5 5 2 2 2 5 8 8 8 10 11 11 10 8 8 10 11 10 11 11 11 11 12 11 10 11 12 13 15 13 12 11 10 11 10 8 6 6 9 11 13 14 14 15 14 13 13 14 16 20 22 24
2 2 1 1 3 6 12 8 3 5 6 5 7 5 3 3 5 7 7 8 9 9 11 11 11 11 12 11 10 11 12 11 11 11 10 10 9 9 12 15 14 13 11 10 11 12 9 7 7 8 11 15 16 16 16 16 16 17 18 21 24 26 27
1 1 1 2 3 3 8 7 7 9 8 5 4 5 6 4 4 5 6 7 7 8 11 11 11 11 9 9 9 9 9 10 10 10 9 9 10 11 13 15 15 14 12 11 12 13 11 9 7 8 11 16 18 18 18 18 19 20 22 24 26 27 28
2 3 4 4 3 5 7 8 7 7 7 4 2 5 6 5 4 5 6 7 7 8 10 11 10 8 7 8 8 8 8 8 8 8 9 9 11 13 13 13 12 11 11 11 12 12 11 8 8 9 10 13 16 19 20 20 21 23 25 26 27 28 29
4 2 3 5 5 5 6 6 6 6 5 2 3 6 5 4 5 6 6 7 7 7 9 11 9 7 7 9 8 7 8 8 7 7 7 6 6 9 9 7 7 9 11 11 11 11 10 7 8 9 9 10 14 18 21 22 23 25 26 27 27 27 27
5 4 3 1 5 6 5 5 4 3 4 3 4 5 5 6 7 6 6 7 7 6 7 8 9 8 7 6 6 5 5 5 5 5 5 5 6 6 5 6 9 12 12 11 12 12 10 9 9 10 11 13 16 20 22 23 25 26 26 26 26 25 25
7 6 7 7 8 7 6 4 4 4 2 3 5 4 4 8 10 8 7 8 6 6 6 6 9 10 7 5 6 6 5 5 5 5 5 6 7 8 7 2 6 13 15 15 15 15 14 12 13 13 15 18 21 23 24 25 26 26 25 25 24 24 23
6 5 7 7 8 5 1 2 4 4 3 5 8 6 5 7 7 7 10 10 7 7 7 7 9 10 8 6 7 8 6 6 6 6 6 6 7 8 8 6 4 8 12 13 14 15 15 15 16 18 20 23 25 26 26 27 27 27 26 24 23 22 23
5 5 5 4 6 6 4 2 4 4 4 7 9 7 5 5 3 5 10 10 7 7 8 7 8 9 8 7 7 7 6 6 6 7 7 6 7 7 6 5 7 6 7 9 10 11 15 18 20 21 23 25 26 27 28 28 28 29 29 27 24 24 26
7 6 5 5 7 7 3 3 5 5 5 8 8 5 4 5 6 7 8 8 7 9 9 8 8 10 8 6 6 7 6 5 7 8 8 5 4 5 5 4 6 6 7 9 10 13 15 18 20 22 24 25 26 28 29 30 31 32 33 31 28 28 28
9 8 6 7 10 8 4 4 6 6 6 7 7 6 6 7 8 9 9 8 8 9 8 8 8 10 8 6 6 6 5 4 6 6 6 6 4 1 3 5 7 9 11 13 16 18 19 20 21 22 22 21 22 24 26 29 31 32 32 32 30 29 28

ECMWFFLT2_925_spd_009.txt.gz
Wind_Speed
8 10 8 9 9 7 4 5 7 4 3 6 4 1 1 2 4 4 5 4 3 1 8 9 7 8 10 9 8 11 12 11 12 12 14 16 16 17 17 17 17 17 18 21 23 23 24 25 26 27 28 31 35 35 34 37 37 36 37 38 38 37 34
8 7 8 11 10 6 5 7 8 4 2 2 2 3 3 4 8 4 4 7 5 3 4 3 2 7 11 11 9 9 9 12 14 14 14 16 17 18 18 18 17 16 17 21 24 26 26 28 29 30 35 39 40 37 34 33 33 34 37 37 37 38 37
9 5 6 10 10 6 1 4 9 6 4 5 2 4 5 6 8 4 4 7 6 6 5 3 4 7 9 10 7 8 10 13 14 15 15 16 16 16 16 16 15 15 17 20 24 26 28 29 29 31 36 37 34 33 33 32 32 36 36 32 33 36 34
7 7 8 10 10 6 1 3 8 4 4 5 4 3 4 6 7 4 5 6 4 6 6 6 10 10 9 10 6 8 12 14 14 14 14 14 14 14 14 15 16 17 19 22 26 28 28 29 29 30 31 31 30 31 31 31 30 32 32 32 36 37 33
5 7 8 12 13 9 5 7 8 5 2 2 3 3 2 4 6 5 6 7 4 4 5 8 12 11 10 11 9 8 10 13 14 13 12 13 13 14 15 16 17 18 18 22 27 28 28 28 28 29 28 28 30 29 29 32 31 29 31 33 36 37 36
7 9 8 11 15 12 10 9 8 9 7 4 6 7 3 3 5 4 5 8 5 6 6 8 10 11 12 12 9 8 9 10 11 10 12 13 13 14 16 16 17 17 17 20 25 26 25 25 24 26 27 26 28 28 28 30 30 30 30 29 32 37 37
10 10 7 5 9 11 12 11 10 11 10 9 10 9 4 4 3 1 2 6 5 5 6 8 9 10 10 8 6 8 9 7 8 9 12 13 13 14 15 15 15 15 15 18 22 23 24 24 24 26 26 26 28 28 28 28 28 30 29 27 31 37 37
7 7 5 2 2 7 11 12 12 12 12 13 12 6 4 5 6 4 3 6 5 3 2 4 6 7 7 6 6 9 9 5 6 10 11 12 12 12 12 13 12 12 13 16 16 18 20 21 22 24 25 26 26 27 27 27 27 27 27 25 27 33 37
6 7 8 6 4 6 8 8 11 13 15 15 8 2 3 6 9 11 8 7 5 3 1 2 4 6 9 10 9 8 8 6 5 8 9 10 10 10 11 12 12 13 14 14 13 14 17 19 20 22 24 25 25 25 25 25 24 24 26 25 24 29 33
9 9 10 8 5 5 5 6 9 13 17 18 9 3 4 7 8 11 10 7 4 3 1 2 4 5 10 13 10 7 7 8 6 6 8 9 9 10 12 13 12 13 13 12 12 13 16 20 22 22 24 25 24 24 24 24 24 23 25 25 24 26 28
11 10 9 6 5 6 8 9 12 12 15 17 11 5 7 5 4 6 9 7 6 7 6 5 6 8 10 11 9 7 8 9 8 7 7 8 8 9 11 11 11 11 11 13 14 14 17 21 22 22 24 25 24 23 23 24 23 22 24 25 24 24 25
14 15 14 10 10 12 13 13 15 15 15 17 15 13 10 7 5 9 9 7 9 11 9 9 10 9 8 9 9 8 8 7 6 6 6 8 9 9 10 11 12 13 13 13 14 14 17 20 21 22 23 23 22 22 22 23 23 23 23 23 22 22 21
18 21 19 13 12 13 14 15 17 17 17 18 18 17 12 9 8 12 7 8 10 11 10 11 12 11 11 11 9 6 4 5 6 7 9 11 12 12 13 14 14 14 13 13 14 14 16 19 20 20 20 20 20 20 21 22 23 23 21 20 20 19 17
18 21 20 14 13 13 13 15 17 17 18 20 20 19 17 14 15 15 9 10 12 12 12 13 11 10 10 6 3 4 5 8 9 10 11 12 13 14 15 15 14 13 13 13 13 13 14 17 20 20 20 20 20 21 21 21 21 21 18 17 19 18 17
13 17 17 14 15 16 16 17 16 16 16 17 18 17 14 13 15 13 10 10 10 10 11 10 5 3 3 3 4 8 9 9 10 11 12 13 14 14 15 14 13 12 11 12 13 13 15 18 20 20 20 19 20 20 20 19 19 19 18 18 20 20 19
8 10 14 15 15 15 17 19 17 15 14 13 13 11 9 10 12 9 6 7 8 7 8 7 4 2 5 9 10 9 8 9 11 13 13 13 14 15 14 13 12 13 13 14 14 15 16 19 20 19 17 16 16 16 17 18 19 20 20 20 21 21 19
7 7 10 12 11 10 12 14 15 15 13 11 11 10 10 13 13 9 7 8 8 5 4 6 8 8 9 10 9 7 7 8 11 12 13 13 14 14 13 13 14 15 15 14 14 15 16 18 18 17 16 15 17 19 20 21 20 19 19 20 20 20 19
7 5 4 6 7 8 8 7 11 16 16 16 15 12 11 13 11 6 4 6 6 5 6 8 9 8 5 4 4 3 4 6 9 11 11 9 7 7 9 12 14 13 11 11 12 14 15 15 16 16 18 20 21 21 21 19 19 18 18 18 18 19 20
4 1 3 6 8 8 4 1 4 10 15 18 15 6 4 7 7 4 5 7 6 5 5 6 5 4 3 1 2 2 3 6 8 10 10 7 4 4 7 10 11 10 10 10 11 13 15 16 17 18 21 21 19 18 18 18 19 18 17 17 18 19 21
2 1 4 6 5 1 1 1 2 3 6 9 9 4 2 4 5 6 8 9 5 3 4 4 3 3 5 4 2 1 3 5 6 8 9 8 7 7 7 8 7 8 10 12 13 15 16 18 19 19 19 18 16 16 16 17 17 17 17 17 18 19 19
2 3 4 3 3 3 3 2 3 3 2 5 7 7 6 4 3 5 7 7 5 4 5 5 5 5 5 4 2 3 5 5 5 6 7 8 9 9 10 10 10 10 12 14 16 17 17 16 16 15 15 15 15 14 14 15 16 16 16 16 18 20 19
1 3 4 3 5 6 4 3 2 1 2 3 4 5 6 4 2 5 7 7 7 7 6 7 8 7 5 4 1 5 8 6 3 2 1 3 5 6 7 9 11 11 10 11 12 12 11 10 9 10 12 14 14 14 14 14 14 15 15 16 17 20 19
1 2 5 5 6 4 1 2 2 3 3 3 3 6 6 3 1 3 6 7 7 6 7 9 9 7 6 4 1 6 8 5 0 3 5 6 7 7 7 7 10 10 9 10 11 10 10 8 7 9 12 13 13 12 11 12 13 13 13 13 15 17 17
1 1 4 5 4 1 3 6 7 7 4 2 6 8 5 2 2 2 4 5 6 6 9 9 6 3 3 3 2 4 5 5 5 7 9 10 10 10 11 12 13 13 13 14 13 12 11 9 9 11 12 12 11 10 9 10 10 10 10 12 14 16 16
0 1 3 5 3 1 4 9 11 7 2 5 8 7 2 3 3 1 2 6 7 7 7 7 5 4 5 6 5 6 8 10 10 10 13 15 15 14 14 14 16 16 16 16 15 13 11 12 12 12 13 12 10 9 9 8 7 8 11 14 15 16 15
1 1 3 5 2 3 9 16 12 5 3 4 4 2 2 4 6 7 8 9 10 10 10 10 9 9 10 10 9 10 11 12 11 11 14 16 16 16 15 14 14 15 15 15 16 14 12 13 13 13 14 13 11 9 9 8 9 10 12 13 13 14 15
1 1 2 4 3 3 15 18 9 2 1 1 4 6 4 6 10 11 10 10 9 11 13 13 12 13 13 12 11 12 12 12 12 12 12 14 14 14 15 15 16 17 16 15 15 14 12 13 13 12 14 14 11 10 10 10 12 13 13 13 14 15 15
1 1 1 3 3 8 15 12 3 3 4 4 5 6 6 7 9 9 9 9 8 8 11 12 12 13 12 11 11 11 11 12 12 12 11 11 11 12 14 16 20 22 19 15 15 14 13 14 13 10 12 13 11 9 10 13 15 15 15 16 15 15 14
1 2 1 4 6 9 11 8 5 7 8 7 5 6 7 7 6 6 7 8 7 7 9 10 10 11 11 11 11 11 10 11 11 11 11 11 11 12 13 14 17 20 19 17 16 13 12 14 13 11 11 13 12 11 12 15 16 16 17 17 15 14 13
2 4 1 4 6 8 10 10 8 7 8 6 6 7 7 6 6 6 6 7 7 7 7 9 10 9 10 11 11 10 10 10 10 10 10 10 11 12 11 10 12 16 18 17 15 14 13 13 12 11 11 11 13 14 16 17 17 18 18 17 14 12 13
5 4 3 2 4 7 9 8 6 7 9 8 7 7 7 6 7 8 8 9 9 8 8 9 10 9 10 11 10 9 9 9 9 10 10 10 10 11 10 8 7 10 13 12 11 11 12 12 12 12 12 12 13 16 18 19 19 19 19 17 14 14 16
4 4 6 5 3 4 7 6 4 5 8 10 10 8 7 8 9 10 10 10 9 9 8 8 9 10 10 9 9 9 8 8 8 8 8 8 9 10 10 9 7 7 8 8 8 8 9 12 13 12 12 14 16 17 18 18 19 20 19 15 14 16 17
5 5 6 7 5 2 5 5 2 2 5 8 10 9 10 11 11 12 12 12 10 9 8 7 8 10 9 8 9 10 8 7 7 8 7 8 8 8 8 7 6 5 4 4 4 4 5 9 12 10 9 12 15 17 18 18 20 20 18 15 14 16 16
5 7 10 9 7 4 1 3 1 2 4 8 10 10 10 11 11 11 13 13 12 11 9 8 8 10 8 8 9 9 8 7 7 7 7 7 6 6 5 3 3 4 3 3 4 3 3 6 8 7 7 10 14 15 16 19 20 19 17 15 13 13 14
2 9 12 8 5 6 6 3 0 2 3 7 10 9 9 9 9 9 11 12 11 10 10 8 8 9 8 7 8 9 8 7 7 7 7 6 5 5 3 2 2 2 3 3 2 2 4 5 5 4 6 10 12 14 16 19 19 18 18 15 12 11 12
3 7 7 5 6 9 8 6 4 3 4 7 9 9 8 8 8 8 10 10 9 7 5 5 5 5 6 6 8 9 8 7 8 9 8 8 6 6 4 3 2 1 0 2 3 5 6 7 7 7 8 11 13 14 17 19 18 18 20 18 13 11 11
7 9 8 8 9 10 9 7 6 6 7 8 9 8 9 9 8 8 9 8 6 5 5 4 4 5 6 7 8 8 8 8 9 8 7 6 6 5 3 2 1 2 3 4 5 6 7 8 9 9 10 12 15 16 18 20 19 19 21 18 14 12 12

ECMWFFLT2_925_spd_015.txt.gz
Wind_Speed
20 20 19 21 19 13 10 12 17 16 15 15 13 12 13 14 13 11 11 11 11 13 13 11 12 14 15 15 17 19 19 16 11 8 11 14 15 17 19 20 20 21 21 22 26 29 30 32 32 33 33 33 33 31 30 31 30 29 29 28 27 26 25
21 18 19 23 23 17 10 12 17 16 16 17 13 11 12 13 13 11 13 17 14 12 10 10 16 18 15 15 18 19 19 15 12 11 12 14 16 17 20 21 19 19 21 22 26 30 32 33 33 34 34 34 34 33 31 32 31 30 30 29 28 27 26
19 18 17 18 21 24 20 13 14 14 14 15 12 11 12 13 13 10 15 19 15 12 10 10 17 20 18 19 20 19 18 16 14 14 12 13 14 15 18 19 18 18 20 21 26 30 32 33 33 33 34 34 33 33 32 32 31 31 31 29 28 27 26
16 14 13 13 15 22 24 19 14 13 12 13 13 13 12 12 12 11 14 16 12 11 12 12 16 18 19 20 20 18 18 18 15 13 12 12 14 15 16 16 18 19 21 24 28 31 32 33 33 33 34 34 33 33 32 31 30 30 30 29 28 27 27
14 11 13 16 15 16 18 18 16 14 11 12 14 15 13 12 12 10 11 12 10 10 12 14 16 15 15 17 18 16 17 19 14 11 13 13 13 15 15 15 18 20 21 24 29 32 32 33 33 33 34 34 33 33 33 33 31 31 31 31 29 28 27
13 14 16 19 19 17 16 16 17 16 13 12 14 14 13 14 13 11 10 11 11 9 11 13 13 12 13 15 17 16 17 16 10 10 14 15 14 15 16 16 16 18 19 21 26 30 31 31 33 34 34 33 33 33 32 33 33 32 32 32 31 29 27
13 17 18 20 22 22 19 17 17 18 16 13 13 12 13 14 14 14 13 12 11 10 10 9 10 12 15 16 14 12 13 12 10 13 14 13 16 15 16 15 15 16 17 18 21 25 28 29 31 33 34 33 33 34 33 32 33 33 32 31 31 29 28
11 15 17 19 21 21 18 17 18 18 18 18 15 12 12 13 15 16 14 13 12 10 9 8 9 12 15 15 14 13 14 13 13 16 12 8 13 14 14 14 14 14 16 16 17 18 21 24 28 31 33 32 32 33 32 32 33 34 33 31 30 29 29
10 12 13 15 18 17 14 15 19 19 23 27 21 13 12 14 17 19 15 12 12 11 12 12 11 13 14 15 16 17 17 15 14 15 8 6 8 10 13 13 12 15 15 14 14 13 15 21 26 29 30 32 32 32 32 32 31 32 32 31 30 30 30
12 12 11 11 13 14 12 16 22 23 27 31 22 14 14 14 14 18 16 13 12 12 14 17 17 15 15 13 14 15 15 15 16 13 5 7 7 9 12 12 12 13 12 13 13 12 15 22 26 26 29 31 32 31 32 32 30 30 31 30 30 30 30
12 12 11 11 12 13 15 19 24 25 26 27 20 14 16 14 12 15 15 15 17 16 15 17 18 17 14 12 12 13 13 14 14 8 6 8 8 9 11 12 12 12 11 13 15 14 16 23 26 25 27 30 31 31 31 31 30 29 29 29 30 30 30
17 16 14 15 15 16 19 21 23 24 25 26 23 19 18 16 14 14 15 16 19 19 18 18 18 17 16 14 15 16 14 12 11 7 9 11 11 12 13 13 13 14 12 13 15 16 18 22 25 25 26 28 29 30 31 31 30 28 27 28 29 29 28
22 22 20 18 17 18 21 21 21 23 24 27 26 24 23 21 16 15 16 18 21 21 23 24 20 17 16 16 16 17 15 13 13 12 12 13 13 13 14 14 14 14 14 14 15 16 18 20 23 24 25 25 26 27 28 29 30 29 27 27 28 28 27
20 23 23 23 21 19 20 21 21 22 24 26 27 25 26 26 23 22 20 20 20 19 22 25 23 20 17 14 15 15 16 17 16 14 14 14 13 12 12 13 15 15 15 16 16 17 17 18 22 23 23 24 25 25 26 27 28 28 26 26 26 27 26
15 20 21 23 24 22 22 22 23 25 25 25 26 25 25 25 24 25 24 21 18 16 18 20 21 21 21 18 16 16 15 16 15 14 15 13 11 11 11 12 14 15 16 16 17 18 19 19 22 24 23 24 25 26 26 26 27 27 26 25 25 26 25
13 16 19 22 23 23 24 24 24 26 24 22 21 21 22 22 22 23 23 20 16 14 16 17 16 18 23 24 22 19 15 14 13 13 14 14 12 11 10 11 14 16 17 18 20 21 20 22 24 24 23 24 24 25 25 25 26 27 26 25 25 25 25
12 17 20 21 20 18 18 20 23 26 24 23 23 21 22 23 22 19 17 16 15 14 16 18 18 18 20 22 22 20 18 15 15 15 15 15 16 13 9 8 12 16 17 18 20 20 20 23 26 26 25 24 23 23 24 24 25 26 26 25 25 25 25
11 16 19 17 16 15 14 15 20 24 26 26 27 24 23 24 22 18 16 16 17 17 18 21 22 19 18 19 19 19 17 15 17 19 17 16 18 14 6 5 10 13 15 15 17 20 22 24 25 25 24 23 22 22 22 22 23 24 25 25 25 24 24
9 11 13 13 14 13 13 13 17 22 25 28 29 27 26 26 25 24 23 21 19 18 18 20 21 19 18 19 20 20 19 18 19 19 16 16 18 13 7 7 12 14 14 14 16 19 23 24 24 24 24 23 22 22 22 22 22 22 23 23 23 23 23
8 8 10 12 11 11 12 13 14 17 20 24 26 25 25 26 25 24 23 21 20 20 19 19 18 18 19 19 19 20 20 20 21 19 17 17 16 12 10 13 14 15 16 16 17 19 22 24 24 25 24 24 24 23 23 22 21 21 22 23 23 23 23
9 9 10 10 10 13 13 9 7 8 9 12 13 12 15 18 19 21 22 21 21 21 20 18 15 16 17 16 17 21 23 22 22 20 20 20 17 15 14 14 15 17 18 18 19 20 22 24 25 24 24 25 24 24 24 23 22 22 22 22 23 23 23
8 9 10 10 12 13 8 0 5 5 6 7 7 7 10 13 16 18 20 21 21 20 18 18 16 16 15 13 13 16 19 19 19 19 19 19 17 14 13 13 14 17 19 19 21 23 23 23 24 24 25 25 24 23 24 23 23 23 22 22 23 22 22
9 10 10 10 11 8 4 4 3 6 7 7 6 6 11 11 15 19 18 19 22 20 18 18 17 14 12 11 10 12 15 18 18 17 17 17 15 12 12 13 15 17 19 20 21 23 23 23 24 25 25 26 24 23 23 23 22 22 21 22 22 22 22
11 11 10 9 9 5 6 6 2 2 4 4 1 8 9 7 11 15 16 17 21 19 16 15 15 12 10 10 10 12 16 16 14 12 13 13 13 12 12 14 15 17 19 19 19 22 23 24 26 26 26 25 24 22 22 22 21 21 22 22 22 22 22
12 12 11 9 7 4 6 5 2 2 2 4 7 8 3 7 11 13 14 15 15 14 13 13 13 12 10 10 10 9 8 6 7 7 8 8 10 11 11 13 16 17 18 18 18 20 22 23 25 26 25 24 23 22 21 20 20 21 23 23 22 22 21
12 11 10 10 7 3 6 5 4 4 6 7 6 2 3 6 10 11 12 12 10 9 14 14 12 12 12 12 11 7 2 3 5 5 6 7 8 8 10 13 16 16 16 17 18 19 21 22 22 23 25 24 23 22 21 21 22 24 24 23 23 22 21
10 10 11 11 8 6 6 4 5 5 5 4 2 4 4 5 8 10 10 9 8 8 11 11 12 13 12 11 10 8 5 5 5 5 6 7 8 10 11 13 15 15 14 15 18 20 22 22 22 23 25 25 24 23 23 23 24 25 24 24 24 23 21
10 12 11 6 3 7 7 3 2 2 1 4 4 4 4 3 4 6 7 7 7 7 7 6 9 10 9 9 9 7 6 7 6 6 7 7 8 9 11 13 16 17 15 15 18 20 21 22 23 24 24 25 24 23 23 23 23 23 23 22 22 21 20
5 4 2 3 4 6 7 2 2 1 2 2 3 3 2 2 3 3 4 5 6 5 1 3 4 5 6 7 7 8 8 8 9 9 9 9 9 10 11 14 17 18 18 19 21 21 21 22 23 22 23 24 23 21 21 22 22 23 23 22 21 20 19
3 5 6 6 6 7 9 6 1 1 4 4 4 3 2 2 4 5 3 3 3 2 2 5 6 6 7 7 7 9 10 10 11 11 10 10 11 11 12 14 17 20 21 21 21 21 21 21 21 20 21 22 22 20 20 21 22 22 23 22 22 22 21
3 2 3 6 7 8 10 9 5 6 8 7 6 6 5 5 7 6 4 4 3 3 4 6 7 8 9 9 9 9 10 11 13 13 13 12 12 13 14 17 19 21 20 18 19 19 20 21 21 20 20 21 21 21 20 20 21 22 22 21 21 21 21
3 4 6 7 10 10 11 9 7 7 9 10 10 9 8 9 10 9 8 7 6 7 7 8 9 10 11 11 11 11 10 11 12 13 13 13 13 13 15 17 18 19 17 16 18 18 18 20 21 21 20 21 21 21 20 19 20 21 21 20 20 19 19
4 8 9 9 9 11 12 11 10 9 11 13 14 13 12 12 13 14 14 12 11 11 11 11 11 12 12 12 13 13 12 11 11 12 12 13 14 14 16 17 17 17 17 17 18 18 18 18 19 19 20 20 20 20 19 20 20 20 20 20 20 19 18
2 5 7 7 6 7 9 10 12 12 13 15 17 16 15 16 16 16 16 16 16 16 16 15 14 14 14 15 16 15 13 12 12 12 12 12 13 14 16 18 19 19 18 18 19 18 17 17 17 18 17 17 17 17 18 18 19 19 19 19 18 17 17
2 2 4 7 6 8 10 10 11 12 13 16 18 17 17 18 18 18 18 17 17 17 18 18 18 16 16 16 16 16 14 13 13 13 14 13 13 14 16 16 16 17 18 17 17 17 15 15 15 15 15 15 14 15 16 16 17 18 17 16 16 15 15
4 5 2 8 9 10 11 11 11 12 13 15 17 17 18 18 19 19 19 19 18 16 16 18 19 19 18 17 17 16 15 14 14 14 16 17 16 16 17 16 16 16 16 15 15 14 13 13 12 12 13 13 13 14 15 15 16 17 16 15 15 14 15
1 2 4 10 12 11 11 11 13 13 13 14 15 15 16 17 18 18 18 17 16 16 16 17 18 20 20 18 16 15 14 14 15 15 16 17 18 17 17 17 16 15 14 14 13 12 11 11 11 11 12 11 11 12 13 14 15 15 15 15 15 15 16

ECMWFFLT2_925_spd_021.txt.gz
Wind_Speed
15 12 12 14 11 6 4 7 10 9 7 5 3 4 4 4 5 4 4 4 3 4 5 8 13 15 15 13 13 13 11 15 20 17 15 15 14 13 13 13 13 13 13 15 20 24 27 29 33 35 36 37 37 37 37 39 39 39 39 39 38 37 36
18 14 11 15 15 9 4 6 7 2 2 4 3 4 4 4 6 4 5 7 5 5 5 6 12 15 16 15 14 14 12 13 18 17 16 16 15 15 15 15 14 13 13 15 19 24 29 32 34 36 37 37 38 38 38 39 39 39 40 39 38 37 37
16 15 11 12 14 13 9 5 3 4 4 5 4 4 4 5 7 4 5 8 6 6 5 6 12 13 14 15 15 15 14 12 15 17 18 19 17 15 15 15 14 13 14 15 19 25 29 32 34 36 37 38 38 37 38 39 40 40 40 39 38 38 38
14 12 10 9 8 11 11 8 5 5 5 5 6 6 3 4 5 4 5 7 5 6 5 6 11 12 14 14 14 15 16 14 15 15 16 17 17 15 15 15 14 14 16 17 21 27 29 32 34 35 36 37 37 36 36 38 38 39 39 39 38 37 37
11 10 9 10 9 9 10 9 9 8 4 4 6 7 6 5 4 4 5 5 5 5 5 8 10 12 15 16 15 15 15 15 17 17 17 16 16 16 16 15 15 16 16 18 23 28 30 30 32 34 36 37 37 36 36 37 38 38 39 39 39 38 37
8 8 11 14 14 12 11 9 11 10 6 4 5 7 7 7 5 5 5 4 6 5 5 8 10 11 14 15 14 13 12 14 16 16 19 19 18 18 18 17 17 16 15 16 21 26 27 28 31 35 37 37 37 37 37 37 38 38 39 40 40 38 36
8 8 12 19 19 16 13 11 11 10 8 6 5 5 5 6 6 6 5 5 6 6 6 7 7 9 12 14 13 12 12 14 14 13 17 19 19 19 18 18 16 14 14 15 18 22 25 27 30 34 35 36 37 37 37 37 38 39 40 40 39 38 37
9 11 9 17 20 17 12 11 11 10 9 8 7 5 3 4 6 5 5 6 7 5 6 7 7 7 9 12 15 14 13 13 13 12 14 16 16 16 16 16 14 12 12 12 14 16 20 23 28 32 33 34 35 36 37 38 38 40 40 39 38 38 38
7 9 7 10 17 15 9 8 11 13 14 12 9 7 3 4 7 8 5 5 6 6 6 8 7 6 7 8 13 14 11 11 13 12 12 16 17 15 15 14 12 11 11 12 12 12 15 20 25 29 31 33 34 35 36 36 37 39 39 38 37 38 38
9 9 7 5 9 11 8 8 12 16 18 16 11 6 5 6 8 10 8 6 5 6 11 12 9 6 5 5 8 12 10 11 13 10 11 17 17 14 14 12 10 11 12 12 13 11 12 19 23 26 29 32 33 34 35 36 36 37 37 37 37 37 38
9 8 7 4 4 8 12 14 15 14 16 18 12 6 7 6 4 6 9 9 8 6 8 13 10 7 7 5 6 10 8 7 9 8 9 14 15 13 15 14 12 13 14 14 14 12 14 19 23 26 29 31 32 34 35 35 36 36 36 36 36 36 38
13 9 7 8 9 9 13 17 17 16 15 16 14 11 11 7 4 6 8 7 10 11 10 11 9 7 8 7 7 9 7 7 8 8 11 15 15 14 15 15 15 15 14 14 14 13 14 19 23 24 27 31 33 34 35 36 36 36 36 36 36 36 37
19 16 12 12 13 12 12 16 18 18 17 17 16 14 13 9 6 9 8 5 7 10 11 11 8 7 8 8 9 9 8 8 8 8 13 17 17 16 16 15 14 14 13 13 13 13 14 16 20 22 25 29 31 33 35 37 37 37 37 37 37 37 37
18 19 18 17 16 14 12 13 16 18 19 20 18 14 11 11 10 10 10 10 9 8 8 9 7 7 6 4 4 5 7 11 12 9 11 13 14 14 14 13 12 13 14 14 14 14 14 14 18 21 23 27 31 33 35 37 37 37 38 38 38 37 38
11 17 20 20 19 16 14 12 13 17 19 20 19 16 12 10 9 10 10 10 11 8 7 7 6 5 4 3 4 1 2 9 14 13 11 13 14 13 12 12 12 12 13 13 13 13 14 16 20 23 25 29 32 33 34 36 37 38 38 39 39 39 39
5 10 17 21 20 17 17 18 16 16 16 14 13 14 14 12 10 8 7 7 8 8 7 7 6 4 5 6 6 4 3 6 11 12 12 13 15 15 14 14 13 14 14 14 14 14 15 17 22 26 27 29 30 32 34 37 38 38 38 39 40 40 40
3 4 7 13 15 14 16 18 16 11 9 11 11 11 13 16 13 7 6 7 7 5 6 6 8 7 7 7 7 6 6 7 9 11 11 12 13 15 16 16 15 15 13 13 14 15 15 18 25 30 31 30 31 35 37 38 38 37 37 39 41 41 40
3 4 5 6 8 11 11 10 11 11 8 9 10 8 9 12 11 10 9 7 5 4 6 8 9 10 9 8 7 7 8 8 9 9 9 10 10 12 15 16 15 14 13 12 13 15 18 24 29 33 34 34 36 38 37 36 38 38 37 37 39 41 41
4 3 4 6 7 8 6 5 9 11 10 8 8 9 9 7 7 10 11 8 7 7 6 6 7 7 9 7 6 8 8 8 9 8 8 8 8 9 12 14 15 14 14 13 11 13 20 27 29 30 32 34 34 35 35 36 37 39 38 36 38 40 41
4 3 4 6 4 4 5 3 4 3 3 4 4 5 7 5 4 1 1 1 1 0 2 2 1 1 5 5 4 6 8 8 8 8 8 8 7 7 10 12 14 14 14 14 15 19 24 27 27 28 31 33 31 31 34 35 36 38 37 34 36 39 40
5 5 4 4 3 4 6 4 1 2 2 1 2 1 3 5 7 7 5 6 7 7 7 6 6 6 6 5 5 5 6 8 8 8 7 7 7 7 8 11 14 16 19 21 24 26 27 26 27 29 31 32 31 30 32 33 33 35 35 32 34 38 40
1 4 4 4 4 5 5 2 2 3 4 4 7 4 2 5 7 8 7 7 8 8 8 7 7 8 7 5 7 8 7 7 8 8 7 7 7 6 6 8 13 17 22 26 28 28 27 26 29 31 31 31 30 28 29 31 31 31 31 32 34 37 40
1 2 5 5 5 4 3 2 1 4 6 5 6 5 3 5 5 7 9 9 9 8 7 7 7 8 5 4 7 9 9 10 10 10 9 6 5 4 1 2 8 17 24 27 28 27 25 26 30 31 31 31 30 27 28 31 30 28 29 32 36 38 40
2 2 2 3 2 2 1 1 2 5 7 6 5 1 3 4 5 7 9 10 9 8 7 7 8 8 5 5 7 10 10 10 11 12 8 5 8 8 5 4 4 18 25 22 20 21 23 28 33 34 33 31 27 27 29 29 28 28 30 34 37 38 39
2 3 1 2 1 1 2 4 4 3 5 6 4 5 5 2 5 7 10 11 9 8 8 7 6 6 5 5 7 11 12 10 10 11 8 1 5 7 6 6 1 14 22 20 20 24 28 32 34 35 34 30 27 28 28 27 28 31 33 35 36 36 37
2 3 2 2 1 1 0 4 7 7 3 3 3 4 2 3 7 8 9 10 8 8 8 7 5 6 6 8 9 12 13 12 11 12 12 9 7 5 7 10 7 5 17 20 22 26 30 33 33 34 32 27 26 27 25 25 31 34 33 35 37 37 38
2 2 3 2 1 3 1 3 5 5 2 4 3 1 5 6 7 8 8 9 8 7 7 7 7 7 8 9 10 10 11 12 12 11 11 11 12 12 10 10 11 4 7 14 19 24 29 30 31 34 33 27 23 23 25 29 34 33 33 36 38 37 38
2 2 1 1 5 10 6 2 2 1 2 1 1 4 6 6 6 6 7 9 8 7 8 8 9 9 9 9 10 10 10 11 11 11 12 11 12 14 13 14 17 13 5 3 7 15 23 30 34 33 30 27 23 20 23 30 33 34 35 36 36 36 36
1 3 4 5 11 15 9 3 6 4 3 5 6 7 7 6 6 6 7 8 9 10 10 10 10 9 8 8 9 10 10 10 10 11 12 12 12 13 13 16 21 18 12 11 12 11 9 12 28 35 32 26 22 21 26 31 35 38 38 37 36 35 34
3 4 3 5 11 16 14 5 4 8 8 8 9 10 9 8 8 8 8 9 11 11 11 10 9 8 6 7 9 10 10 11 11 11 12 13 15 15 15 16 19 16 11 14 14 15 23 29 21 19 31 31 23 22 30 35 37 39 38 36 35 34 33
4 3 3 7 10 15 16 8 2 11 13 10 10 11 9 8 11 11 10 11 12 12 12 11 10 8 8 8 8 8 9 10 11 12 12 12 14 15 16 17 17 13 9 11 11 9 10 21 33 27 11 26 31 31 35 38 39 41 40 37 35 34 34
3 3 3 6 8 13 13 10 6 8 13 13 12 11 10 11 13 13 13 12 12 11 11 10 10 11 11 10 9 9 8 8 9 10 10 11 12 14 17 19 18 13 8 7 9 8 7 12 22 32 28 7 15 25 31 36 38 37 37 36 34 32 33
4 2 3 5 7 10 12 14 11 8 8 13 14 12 13 14 14 14 14 14 12 12 11 10 11 12 12 11 10 10 9 8 9 9 9 11 12 12 15 19 18 14 9 7 7 9 11 16 23 23 27 25 19 23 25 30 35 33 31 34 34 30 28
3 1 3 4 4 5 7 10 10 10 8 10 14 14 14 14 12 12 14 13 13 13 12 11 12 13 12 11 11 11 10 9 8 8 9 10 10 11 14 18 19 15 10 8 8 12 14 17 22 21 15 17 21 30 32 34 38 36 32 31 31 27 26
4 5 5 3 1 2 5 8 9 8 7 9 13 13 13 13 11 11 13 12 12 13 12 12 12 12 11 11 11 11 12 12 11 10 10 8 8 11 15 16 16 16 12 6 6 11 13 14 15 18 16 15 22 30 31 30 33 34 31 27 24 23 25
8 8 4 1 0 1 3 6 8 8 7 8 11 11 11 12 12 12 12 12 11 11 11 12 12 11 11 12 12 12 13 14 14 14 15 15 15 16 18 16 14 16 15 8 5 8 10 11 12 14 16 17 22 26 28 29 30 31 32 28 22 21 24
8 6 3 4 2 1 1 3 6 7 7 7 9 9 10 10 11 11 12 11 10 10 10 11 11 12 12 11 11 12 11 12 15 16 17 20 23 22 21 18 16 16 16 10 9 12 11 11 10 8 10 18 22 23 26 29 29 29 30 29 25 24 25

ECMWFFLT2_925_spd_024.txt.gz
Wind_Speed
12 13 9 9 9 6 6 7 8 7 8 8 6 5 4 2 3 5 4 4 4 3 5 6 11 15 16 16 16 17 17 18 17 14 15 16 16 17 17 17 18 19 19 19 24 29 31 33 35 38 41 42 42 41 41 42 42 42 43 43 42 42 41
14 14 11 11 10 8 5 6 8 5 5 7 5 2 3 5 6 4 4 6 5 4 6 5 7 12 14 14 14 16 17 18 17 16 16 17 17 18 19 19 19 19 19 18 23 30 34 37 39 41 43 43 43 43 43 42 41 42 43 43 42 42 42
12 10 10 10 9 9 8 6 7 6 5 6 4 4 5 7 7 5 5 7 5 5 5 5 9 12 14 14 14 15 17 17 16 16 17 18 18 16 17 18 17 17 18 18 23 29 34 38 40 42 42 42 42 42 43 44 44 45 46 44 43 42 42
10 7 8 9 9 10 8 5 6 5 5 6 6 4 4 5 6 5 4 4 4 6 5 7 12 14 16 16 15 15 17 18 17 16 16 17 16 15 15 17 17 17 19 20 25 30 33 37 38 38 39 40 41 42 42 43 44 44 44 44 43 42 42
8 6 6 10 10 9 8 7 7 6 3 3 5 5 4 5 4 3 4 4 6 6 5 9 12 14 16 17 17 16 16 18 18 17 17 16 16 17 17 17 17 18 18 19 25 31 34 35 36 36 37 39 40 41 41 42 42 42 42 44 44 43 43
7 6 6 11 14 12 10 8 9 9 5 3 5 7 4 3 4 5 5 6 7 5 5 8 10 11 14 16 17 15 15 18 19 18 18 18 17 17 17 17 17 17 17 16 21 27 29 30 31 34 37 38 39 40 41 42 42 43 44 44 44 44 43
8 8 7 9 16 17 14 11 9 8 6 5 5 6 3 3 5 4 4 6 8 6 6 8 8 9 11 14 17 16 16 17 17 17 18 17 18 18 18 19 17 16 16 16 18 22 25 27 30 34 36 36 38 40 41 41 41 43 44 44 44 44 44
8 10 9 6 10 15 13 12 10 9 9 8 6 5 4 4 6 4 4 7 7 5 5 7 7 7 8 11 14 17 17 14 13 16 17 16 17 18 18 18 17 16 15 14 14 16 19 23 27 31 34 35 37 38 39 40 41 42 42 42 43 43 43
7 9 9 7 7 9 9 10 12 14 14 11 6 4 4 4 6 6 6 8 6 5 5 8 9 6 7 9 11 12 13 10 10 13 14 15 17 17 18 18 17 15 13 12 13 14 15 21 26 30 33 34 35 36 38 39 39 39 40 40 41 42 42
10 9 9 8 6 7 7 9 14 17 17 15 8 4 5 6 5 5 6 6 5 6 5 10 14 13 8 8 9 10 11 13 13 13 13 14 15 15 17 18 15 12 11 12 14 14 14 20 25 28 32 34 35 36 38 38 37 38 39 39 40 41 41
12 11 9 6 6 8 10 10 13 16 18 18 12 6 7 6 4 4 7 5 3 7 7 10 15 16 12 8 9 10 11 11 11 12 13 14 14 14 15 15 12 11 11 13 15 15 16 21 26 29 31 34 35 35 35 36 37 38 39 39 40 41 41
17 15 13 11 8 10 14 15 14 16 18 18 15 12 8 8 6 9 9 6 6 8 8 9 12 13 10 6 8 10 10 9 8 9 12 15 15 14 14 13 13 13 13 15 16 16 16 20 25 28 31 34 35 35 36 37 37 38 39 40 40 41 41
19 19 17 18 13 9 11 15 16 17 20 21 20 16 10 11 9 12 8 9 9 8 8 9 10 9 8 7 8 8 7 8 9 8 10 13 13 12 12 13 13 14 14 15 16 16 16 19 22 25 28 31 33 34 36 37 38 39 40 40 40 40 41
16 20 19 19 18 12 9 12 15 16 18 22 22 19 14 13 12 10 8 10 11 7 8 10 9 8 8 6 5 5 5 8 10 12 12 12 12 12 13 14 13 14 15 15 15 15 15 16 19 23 26 29 32 34 35 37 38 40 41 40 40 40 41
10 17 21 19 19 17 12 10 13 15 16 18 19 18 15 12 11 8 8 10 9 6 7 9 8 7 6 3 4 6 7 8 9 12 13 14 15 16 16 16 16 15 15 14 14 14 14 16 20 24 27 30 33 34 35 37 39 40 41 41 41 41 42
6 11 19 22 20 17 14 12 13 14 14 14 14 13 12 10 9 8 7 8 8 6 7 9 9 7 8 7 6 6 7 6 6 9 11 12 14 16 17 16 15 14 15 14 14 15 15 17 22 26 28 29 31 33 36 38 40 40 41 41 41 42 42
6 10 14 20 19 13 13 14 12 11 9 10 11 11 12 12 10 8 8 8 7 7 8 8 9 7 8 9 7 6 7 7 7 8 9 9 10 12 13 13 13 14 13 13 15 16 16 19 25 30 31 31 32 36 39 40 39 39 40 41 41 41 41
6 14 13 14 16 12 11 8 10 13 11 10 9 7 9 11 8 6 7 8 8 8 9 10 10 8 7 8 6 4 5 7 9 9 10 10 10 11 11 12 13 14 13 13 14 17 21 26 31 35 35 36 37 40 40 39 38 39 40 40 39 39 40
5 10 9 10 13 11 8 3 7 13 13 12 9 2 2 5 7 5 2 2 4 5 5 7 9 7 5 3 3 5 4 1 7 10 11 12 12 12 12 12 12 12 13 14 14 17 24 30 33 33 34 35 37 36 35 35 37 39 39 39 39 39 39
5 5 4 9 9 5 3 1 3 6 8 10 9 5 5 4 3 3 6 5 5 3 0 4 7 7 6 5 7 8 8 7 3 6 9 11 13 14 15 16 16 17 17 17 18 21 26 29 29 30 33 36 35 33 34 36 37 38 37 37 37 38 38
3 3 5 5 4 2 2 1 1 3 5 9 9 5 3 6 5 2 8 8 6 6 3 2 4 3 6 7 7 8 10 10 7 6 7 9 10 12 12 12 13 16 19 22 24 26 28 28 29 32 35 37 35 32 33 34 35 36 35 35 37 38 39
1 3 5 3 3 4 3 2 2 3 6 8 11 8 1 5 6 2 5 7 5 5 5 4 5 2 7 5 4 8 11 12 10 9 8 7 6 8 9 10 10 10 14 20 23 24 24 25 30 34 35 35 33 30 31 32 33 33 32 34 36 38 40
2 3 5 4 4 3 4 8 5 1 5 8 11 8 2 5 6 4 3 7 6 6 7 4 4 6 5 0 4 6 8 9 9 11 11 9 4 2 3 6 10 14 19 22 23 22 21 23 30 33 33 32 30 27 28 32 32 31 32 36 39 40 42
3 4 5 4 2 2 9 13 13 12 4 7 10 4 4 5 5 4 5 8 5 5 6 6 7 6 4 4 4 6 6 5 5 8 10 10 9 8 7 7 6 12 21 22 18 17 19 24 31 33 32 30 27 27 29 30 29 30 35 40 42 45 45
5 5 5 3 1 3 12 16 16 16 7 5 7 4 6 3 1 2 6 7 4 4 6 6 5 3 2 1 2 5 6 5 6 8 8 8 8 9 9 12 12 6 11 15 17 22 28 32 34 34 32 28 25 26 27 25 27 35 41 44 45 45 43
3 4 4 4 1 3 15 21 18 10 3 4 5 4 3 3 4 5 6 6 5 7 9 8 5 4 4 4 3 5 7 7 8 9 10 10 11 12 14 17 17 10 3 8 13 18 23 26 27 27 26 24 25 27 25 25 33 40 41 43 44 41 38
2 3 3 2 2 6 18 21 13 8 6 2 3 3 4 4 6 7 7 6 6 7 9 8 6 5 5 6 5 6 7 8 8 9 10 10 10 11 12 16 18 14 6 1 2 3 5 7 8 9 11 12 14 17 19 27 38 42 40 40 39 35 34
1 1 1 1 3 8 14 11 5 4 6 5 1 5 6 5 5 6 6 6 6 7 8 8 7 7 7 7 8 8 9 9 9 9 9 9 9 9 9 11 15 14 8 6 6 5 4 2 1 3 4 4 4 4 8 15 20 23 28 33 33 31 32
1 2 3 3 4 6 8 7 5 7 9 9 6 5 7 5 4 4 6 6 6 6 7 8 8 8 7 7 8 9 9 10 10 10 10 9 9 9 9 11 13 12 8 7 8 8 8 6 4 6 6 5 3 1 3 7 9 11 17 24 27 29 31
1 2 3 4 5 6 8 8 8 9 11 11 9 6 6 6 5 5 7 7 6 6 7 9 9 7 6 7 8 8 8 9 10 10 10 10 11 11 12 13 15 14 10 9 9 9 12 12 8 6 5 4 3 1 3 2 2 5 11 17 22 26 29
1 2 2 3 5 5 7 9 10 12 12 11 10 8 6 5 7 8 7 8 8 8 8 10 10 7 7 8 8 8 8 9 9 10 11 11 11 11 12 14 16 15 11 10 10 9 12 14 12 8 6 5 4 6 6 5 6 9 11 11 12 15 20
2 1 3 6 6 4 6 8 8 10 11 10 10 8 7 7 9 9 8 8 8 9 8 9 10 10 9 8 8 8 8 8 8 9 10 10 10 11 13 15 15 12 9 8 9 9 10 12 13 12 11 10 7 7 9 13 17 19 18 15 11 10 13
2 1 4 7 6 4 8 10 8 9 10 9 10 9 8 9 9 9 10 9 8 9 9 8 10 11 9 8 8 9 8 8 9 9 9 10 11 12 14 15 13 10 8 8 9 10 10 12 14 16 15 14 12 13 16 21 27 30 32 32 29 24 20
0 1 3 6 4 3 6 7 8 9 10 9 9 9 8 9 8 8 10 10 9 10 9 7 9 11 8 7 8 9 8 8 8 8 9 10 11 13 16 16 13 10 10 10 10 10 11 13 16 17 18 18 18 19 23 28 32 34 34 34 36 35 30
1 1 3 3 2 1 4 5 6 8 9 8 9 9 9 8 7 7 8 10 10 10 9 7 8 9 8 7 8 9 8 8 8 9 11 10 10 13 16 16 12 9 9 9 10 10 10 11 13 15 18 20 21 22 24 26 29 31 27 21 21 26 26
2 2 3 2 1 1 3 4 6 8 8 7 7 7 7 7 5 6 8 8 8 8 7 7 7 7 8 8 8 9 9 8 8 10 12 14 15 16 17 17 14 11 9 9 10 11 12 11 10 9 12 17 20 22 24 24 22 22 23 19 16 17 19
2 2 3 3 2 2 1 2 5 7 7 5 3 4 3 4 5 5 6 7 6 6 6 6 6 6 7 7 7 8 8 7 9 11 13 16 17 17 18 18 17 15 13 12 11 12 13 13 12 9 7 10 14 18 24 26 22 18 18 19 19 20 21

ECMWFFLT2_925_spd_030.txt.gz
Wind_Speed
11 13 10 9 8 5 3 4 7 6 5 7 4 4 2 1 2 4 2 3 6 3 5 6 6 8 10 12 14 15 16 17 14 11 11 13 15 16 17 17 18 19 18 19 23 27 28 30 31 34 37 39 40 39 38 40 41 41 41 43 44 44 43
10 9 11 10 10 9 6 6 7 3 6 4 4 2 2 2 4 5 2 5 5 3 5 5 5 8 9 11 13 14 16 15 14 12 12 14 16 17 19 19 18 17 17 18 23 28 31 33 35 38 41 42 41 40 40 40 40 41 43 44 44 44 43
7 5 8 7 7 8 6 5 7 5 3 4 3 2 4 4 4 4 3 5 5 6 5 3 5 9 10 11 12 13 15 14 13 13 13 14 15 15 16 16 15 16 17 18 23 28 31 34 36 39 41 40 39 39 40 41 42 44 45 43 43 43 43
6 5 6 6 6 7 3 2 5 4 3 4 4 4 4 4 4 3 4 5 5 7 7 6 8 11 11 11 10 11 14 15 14 14 13 14 14 14 14 15 16 17 18 20 25 30 32 34 36 38 38 37 37 39 40 40 41 42 42 41 41 42 42
5 4 5 9 10 8 5 4 5 4 2 2 3 2 3 4 4 3 3 6 5 5 5 10 11 11 11 12 11 12 14 15 15 15 15 14 14 14 14 15 16 18 18 20 26 32 33 34 35 34 34 36 38 38 38 40 40 39 40 41 42 42 41
3 4 8 13 15 12 10 7 7 7 4 4 4 4 3 3 5 5 4 6 7 4 5 8 10 10 11 12 13 12 12 14 15 15 16 16 15 15 16 17 17 17 17 17 22 28 29 29 30 31 32 34 35 36 38 40 39 40 41 43 43 42 40
4 6 8 10 12 14 12 10 9 8 6 6 6 7 4 3 3 2 3 5 9 6 7 9 9 10 10 11 12 12 11 12 13 14 15 15 14 14 15 15 14 14 15 16 19 23 25 27 29 31 32 33 35 37 39 39 39 41 43 43 43 42 40
3 5 6 5 4 6 8 8 8 8 8 8 8 6 4 4 4 2 2 7 8 5 5 8 8 8 8 7 8 11 11 10 11 13 13 12 12 12 11 10 10 11 13 13 14 16 19 23 27 29 31 33 35 37 38 38 41 44 43 41 41 40 41
4 4 5 5 4 2 4 5 7 9 11 11 7 3 4 4 7 8 6 8 7 5 3 4 7 6 7 8 7 8 9 8 7 9 10 10 10 9 8 8 9 11 12 12 13 13 15 20 26 28 31 34 34 36 37 39 42 43 41 40 39 39 40
7 4 5 5 2 3 3 3 8 12 13 14 10 4 4 6 7 9 7 7 6 6 4 5 7 6 7 10 7 5 7 8 7 7 8 9 9 9 10 10 11 12 13 13 14 13 14 20 25 28 31 33 34 36 38 41 42 40 40 40 39 39 39
4 2 5 4 2 3 5 4 6 11 13 15 12 8 8 7 5 7 8 7 5 7 5 6 8 7 8 10 8 6 8 8 7 7 7 6 7 9 10 10 10 12 12 13 15 14 15 21 26 29 31 33 34 35 37 39 40 38 39 40 39 39 39
2 3 9 10 5 4 6 8 8 10 12 15 15 14 9 8 6 10 10 8 7 8 7 8 9 8 8 9 9 9 7 7 7 6 5 5 7 8 8 9 10 12 13 14 15 15 15 19 25 28 30 32 34 35 36 38 38 38 39 39 39 39 39
7 6 10 11 7 5 7 10 12 11 12 16 19 17 10 10 10 14 10 10 10 8 7 9 10 9 10 10 10 7 5 6 7 6 6 7 8 8 9 10 12 13 14 14 15 15 15 17 21 25 27 30 32 33 34 36 37 39 39 39 40 40 39
9 9 9 8 6 5 7 10 11 12 14 16 18 15 12 12 13 12 8 10 11 9 8 10 10 8 7 6 4 3 5 6 7 7 7 7 7 8 10 11 12 13 14 15 15 15 15 15 18 22 25 28 31 33 34 36 38 40 40 39 39 39 40
8 9 7 6 8 8 9 10 10 11 13 15 15 13 10 10 11 10 9 9 9 8 6 7 9 5 2 4 5 6 7 7 7 7 8 8 9 9 11 12 11 12 13 13 13 14 15 16 20 24 26 29 32 33 34 36 38 39 39 39 39 40 42
5 6 6 10 13 12 10 12 11 10 10 10 10 10 9 10 10 10 12 10 8 7 6 7 9 8 6 7 9 9 8 6 5 7 9 9 10 10 10 11 11 12 13 13 13 15 16 18 22 26 28 29 29 31 33 36 38 37 38 38 39 41 42
5 7 7 10 11 9 8 8 7 8 10 10 9 8 9 11 11 10 12 11 8 8 7 7 9 10 10 10 8 8 7 5 5 8 9 9 10 9 8 8 10 12 13 13 14 16 16 18 24 30 32 30 31 35 38 38 36 35 37 38 39 40 39
4 9 9 7 5 5 5 2 1 4 8 11 13 13 11 11 12 11 10 8 8 9 9 10 13 13 8 5 4 4 4 4 4 6 8 8 9 9 8 7 9 10 11 11 12 14 17 22 28 31 31 32 34 36 36 34 34 36 38 38 39 38 38
3 7 6 3 6 7 4 5 5 4 4 3 7 14 16 13 13 13 10 8 9 10 11 13 14 10 3 4 4 4 4 3 2 5 6 6 7 9 8 7 8 9 9 10 10 12 18 24 26 26 28 30 30 29 30 32 34 37 38 38 38 37 36
2 3 2 4 7 8 8 6 7 7 6 9 9 9 14 11 9 10 10 10 9 9 10 11 8 5 6 5 3 3 3 2 0 3 5 6 7 8 8 8 9 9 9 10 11 13 16 19 21 23 27 29 27 26 30 33 33 34 34 33 33 33 33
2 3 4 4 6 10 7 3 4 4 2 4 4 4 8 7 3 6 8 10 10 8 8 7 5 6 6 2 1 1 2 2 1 2 4 5 7 7 8 8 8 8 9 12 14 14 13 15 18 21 22 24 24 24 27 29 29 29 29 29 31 32 33
3 3 4 3 3 5 3 2 1 1 3 4 3 3 6 6 3 2 5 8 10 9 6 5 6 6 5 3 5 3 2 3 3 3 4 4 5 6 7 7 6 7 7 10 15 16 15 16 21 22 21 22 24 23 23 25 26 27 28 30 32 33 34
4 4 4 3 3 4 5 4 4 4 3 1 4 2 5 5 8 10 7 7 10 10 7 7 8 7 6 7 6 2 2 3 3 3 4 4 4 5 6 6 6 7 7 4 10 14 15 16 19 22 23 24 24 22 23 26 26 27 30 33 35 36 36
6 6 5 3 3 5 4 3 6 7 3 3 5 3 6 6 12 13 10 10 11 9 7 9 10 8 7 6 4 1 1 2 3 3 4 4 5 5 7 9 8 8 8 4 4 5 7 12 17 20 23 24 22 21 23 23 23 27 32 36 37 37 35
7 8 5 4 4 4 3 4 7 7 3 3 5 5 4 9 15 13 10 10 9 5 5 7 8 5 3 4 5 4 3 2 2 3 3 2 3 5 7 11 11 11 12 12 11 10 6 5 15 20 22 21 19 20 20 20 24 31 34 33 33 33 32
6 6 5 4 5 3 2 3 3 4 2 2 3 5 6 10 14 13 10 8 7 4 3 3 3 5 6 7 8 6 5 4 3 4 4 3 5 6 8 12 13 11 12 14 15 16 15 8 7 17 21 19 16 16 17 20 28 31 27 24 26 28 29
5 4 5 6 5 3 3 3 1 4 1 2 4 7 8 8 12 12 9 7 8 7 3 1 4 8 9 8 8 7 6 6 5 6 6 7 8 8 9 12 14 12 10 12 14 16 17 16 10 5 13 15 15 16 18 24 28 25 21 23 25 26 27
5 5 6 5 4 3 4 2 2 2 1 3 4 5 5 6 9 9 7 7 8 8 5 2 3 6 7 7 7 7 6 6 7 8 9 9 9 9 10 11 13 13 11 11 14 17 17 18 18 12 5 4 8 11 14 17 19 20 22 24 24 25 27
4 5 5 3 5 3 1 2 4 5 1 4 5 4 2 3 5 6 6 7 8 9 7 4 2 4 6 6 7 7 7 7 7 9 9 8 8 9 10 11 13 14 12 11 13 16 18 19 18 17 15 10 4 2 6 7 9 16 21 22 23 26 29
6 7 5 5 6 3 3 4 5 6 4 3 5 5 3 2 3 4 4 5 7 9 9 6 5 5 6 6 6 7 7 7 8 9 9 9 9 9 10 13 14 13 13 13 13 14 16 18 17 16 15 14 10 8 7 5 4 10 16 20 23 25 28
6 5 3 5 5 4 4 4 5 7 5 2 2 4 5 6 6 5 3 3 5 8 10 9 7 7 7 6 5 6 8 8 8 9 10 10 11 11 13 14 15 13 12 13 13 13 15 17 17 15 14 14 13 11 9 6 3 3 8 15 20 22 25
6 5 2 3 4 4 3 4 4 5 4 2 3 5 6 8 8 9 7 4 2 5 9 9 8 8 8 7 6 6 6 6 7 7 8 9 10 11 12 14 15 14 13 12 13 13 14 16 16 15 15 16 16 15 13 9 5 3 3 7 13 17 20
8 9 5 3 4 1 2 5 5 4 3 2 5 7 7 9 9 10 10 9 5 2 8 9 8 7 7 7 5 5 5 5 5 6 7 8 9 9 11 13 14 13 12 13 14 14 14 15 16 16 17 18 18 18 17 14 10 6 4 4 6 8 11
7 7 5 4 4 2 2 5 7 5 3 4 7 7 5 6 8 9 10 11 8 5 6 9 9 6 5 7 4 2 5 5 5 5 6 7 7 8 10 12 13 13 12 12 12 12 13 15 16 16 17 18 18 18 17 15 12 8 5 4 4 4 4
8 8 7 4 0 1 3 5 8 6 4 5 8 6 4 5 6 8 9 10 10 8 8 8 10 8 6 9 6 1 5 4 4 6 7 7 8 9 11 11 11 12 12 11 10 10 10 12 13 14 15 16 16 15 15 14 12 9 6 5 4 4 5
13 14 10 6 3 1 1 4 7 5 3 4 9 7 4 6 7 8 8 8 9 9 8 9 11 9 7 11 7 1 5 5 5 6 8 10 11 11 11 11 10 10 10 10 9 9 8 9 10 11 12 12 12 12 12 12 11 10 8 7 6 7 8
13 12 7 5 5 3 2 3 5 5 1 3 8 8 7 8 8 8 7 7 8 8 8 9 10 8 7 10 7 3 5 6 7 8 9 11 12 12 12 12 11 10 9 9 10 10 9 8 8 8 8 8 9 9 10 11 12 12 11 10 9 8 9

ECMWFFLT2_925_spd_033.txt.gz
Wind_Speed
14 18 14 14 13 7 6 9 11 8 6 8 5 2 1 1 4 4 5 6 4 2 7 8 9 9 9 11 11 12 13 12 10 10 12 15 16 17 18 19 20 20 19 19 24 26 27 29 30 32 33 34 36 34 33 37 37 34 37 41 40 37 37
13 13 16 16 14 10 7 9 10 7 6 7 7 4 3 4 7 4 5 10 8 4 5 5 9 11 11 11 12 13 13 11 11 11 12 15 17 17 19 20 18 18 18 19 24 28 29 32 33 35 37 37 38 37 35 36 36 36 38 41 40 37 37
9 8 13 13 11 10 5 7 10 8 5 7 6 5 6 7 8 5 5 8 8 9 7 2 6 11 11 12 12 13 14 13 12 12 13 15 15 15 16 17 16 16 18 20 25 29 31 33 33 34 37 36 36 37 37 36 37 39 38 36 35 36 36
10 10 11 10 10 7 2 5 10 6 4 6 7 5 4 5 7 5 3 4 6 8 9 8 9 9 10 11 10 11 13 14 13 12 12 13 13 14 15 16 17 19 21 24 29 32 32 33 33 33 34 34 35 36 36 36 36 36 35 34 34 36 37
9 9 9 11 13 10 6 8 10 7 4 3 5 5 4 4 6 5 5 6 3 2 6 13 15 12 11 11 10 10 12 14 13 12 11 11 12 13 15 16 18 20 21 24 29 32 32 31 31 31 31 32 34 34 34 36 35 33 35 36 35 37 38
7 7 10 16 18 16 14 11 10 11 9 5 6 6 6 6 5 4 4 7 4 2 3 8 11 11 11 11 11 10 11 13 13 12 13 11 10 12 15 16 16 18 18 20 25 27 28 27 28 29 31 31 33 33 34 36 35 34 36 36 34 37 38
3 5 9 14 13 12 15 12 11 13 11 9 9 7 7 7 5 2 3 8 5 3 5 7 8 10 10 9 9 9 10 12 12 12 13 11 9 9 11 12 13 13 14 16 19 21 23 25 26 29 31 31 32 34 34 34 35 36 37 35 34 38 41
1 2 5 6 4 5 10 11 11 12 12 13 12 6 4 7 7 5 5 8 4 2 3 5 4 5 6 6 7 8 9 8 8 10 11 10 8 6 7 9 10 10 11 12 14 15 19 23 25 27 29 30 31 33 33 33 36 38 37 34 32 36 39
5 6 7 7 5 4 7 8 10 13 14 17 15 5 2 6 11 12 9 9 4 3 0 2 3 4 6 7 7 7 8 7 7 8 7 7 6 5 7 8 9 11 12 13 14 14 16 21 25 27 28 29 30 32 33 34 36 36 36 33 31 34 37
10 8 7 6 3 3 3 4 8 13 17 20 15 5 4 8 10 12 13 8 2 3 1 2 4 4 6 9 8 6 7 8 7 6 4 4 5 6 8 8 9 11 11 13 14 14 16 20 24 26 28 29 31 31 33 35 35 34 34 33 32 32 34
2 1 1 2 3 1 3 2 3 7 13 18 15 9 7 6 5 9 13 9 5 4 4 3 4 6 6 8 7 6 7 8 6 5 4 4 4 5 6 6 8 9 10 13 16 15 16 20 24 26 28 30 31 30 32 35 33 31 32 33 32 32 34
4 5 5 5 4 4 5 6 6 5 7 13 17 14 8 7 6 11 11 7 10 10 6 5 6 6 6 7 7 6 6 5 4 4 4 6 6 6 5 7 9 10 11 13 14 13 14 19 23 26 27 30 30 30 32 34 32 31 31 32 32 32 33
5 7 8 5 3 5 6 7 9 9 8 9 13 14 10 10 10 13 7 8 11 12 8 9 8 5 7 7 5 5 5 3 3 4 5 7 7 6 6 8 9 10 11 12 11 12 13 16 20 23 26 28 28 28 30 30 32 32 30 30 33 32 32
6 7 7 4 2 4 7 8 11 12 12 11 10 11 13 13 14 14 10 9 11 11 10 12 11 7 6 4 3 6 7 4 4 4 6 7 6 6 7 9 9 10 11 11 11 11 12 14 18 22 24 26 28 30 31 31 32 33 30 32 36 35 33
5 5 6 4 5 7 9 10 11 11 12 12 12 11 12 12 12 14 15 11 8 6 5 8 7 2 2 4 6 8 8 5 4 4 5 5 5 6 7 8 8 9 10 10 10 11 13 15 19 22 24 26 29 32 32 32 34 33 31 33 37 36 35
4 4 6 9 12 11 11 12 12 13 13 12 11 9 9 10 9 11 14 11 6 3 4 8 7 3 4 8 9 8 7 5 4 5 6 5 6 7 5 5 6 7 10 11 11 13 15 16 19 23 25 25 27 30 32 33 34 33 32 32 36 38 36
4 4 6 10 12 9 9 9 8 10 12 12 12 12 11 11 9 9 9 7 4 5 7 9 10 9 10 10 9 9 9 7 5 6 7 8 7 6 4 5 6 7 9 10 12 13 15 17 22 26 27 25 26 30 31 31 30 30 31 33 37 39 34
4 7 8 9 8 6 4 1 1 4 7 8 10 12 12 11 11 9 8 6 6 7 9 9 11 13 13 10 8 7 6 6 6 7 8 8 7 6 4 5 7 8 7 8 10 13 16 20 24 25 26 27 29 29 26 24 26 29 30 30 32 34 33
4 5 6 6 7 5 4 2 1 3 4 4 8 10 9 8 9 11 12 11 10 9 8 10 13 13 10 5 2 2 3 4 5 7 7 6 6 6 5 6 7 7 7 9 10 12 16 19 20 21 24 27 28 25 23 24 28 32 31 30 30 29 29
3 2 5 6 3 9 12 2 4 2 2 2 7 6 3 3 5 5 8 10 10 9 8 9 9 6 3 2 1 2 4 4 5 6 6 5 5 6 5 6 7 7 8 10 11 12 13 15 18 22 25 26 25 24 25 26 27 28 28 28 27 25 26
5 5 8 7 6 13 13 2 4 2 1 2 4 3 1 4 6 6 6 7 9 9 8 7 6 3 2 4 5 5 6 5 5 6 5 4 5 6 6 7 8 8 9 10 11 12 13 15 18 21 22 23 23 23 24 25 24 26 26 24 24 25 26
6 6 8 8 8 9 5 3 2 1 2 2 2 2 2 2 5 7 7 7 9 10 9 7 4 1 4 7 6 6 7 5 4 4 4 4 5 5 6 7 7 8 9 9 9 10 12 15 17 18 19 21 21 20 21 24 25 25 24 24 28 29 27
6 8 8 8 8 5 3 4 1 2 1 4 4 4 3 2 6 9 7 8 10 9 9 8 4 4 7 8 5 5 7 4 2 2 3 3 4 4 5 6 7 8 8 7 6 8 11 13 14 16 18 20 21 19 20 23 23 22 24 27 31 31 30
7 8 8 7 6 3 3 2 2 3 2 5 5 5 2 3 7 9 8 10 11 10 10 9 6 7 6 5 2 3 6 4 2 0 3 4 5 5 5 5 6 6 6 4 1 2 5 7 9 14 17 18 18 18 18 20 22 23 27 30 31 31 33
9 9 9 7 6 3 3 2 1 1 3 5 5 4 1 3 6 7 7 9 9 9 10 8 6 4 2 2 3 5 4 2 2 1 2 3 4 5 5 6 6 5 6 8 7 6 5 3 4 11 15 15 15 15 16 18 20 20 21 24 26 28 30
8 8 8 7 6 2 5 4 1 2 4 4 3 1 1 3 6 7 6 7 7 9 10 9 7 3 1 1 2 4 4 3 2 2 3 2 3 3 5 7 6 5 8 10 10 10 10 8 2 6 12 13 12 13 13 14 15 14 17 22 24 27 28
7 7 8 7 5 0 5 6 4 4 4 3 3 2 2 3 5 7 6 5 5 7 9 9 6 3 1 1 3 4 4 3 4 5 5 4 3 4 5 7 7 6 8 10 11 11 12 11 8 2 6 8 7 8 7 7 8 11 18 23 25 27 29
5 7 7 4 3 4 2 4 4 3 2 1 1 2 2 2 4 5 5 5 4 5 7 7 4 3 1 1 3 4 4 4 5 5 6 6 5 5 5 6 7 7 8 11 11 11 11 11 10 8 5 5 6 5 3 1 2 8 13 18 22 25 27
4 6 6 7 9 9 9 9 5 1 3 2 3 3 1 2 3 4 4 6 6 4 5 5 2 2 2 1 3 5 6 6 5 5 5 6 6 5 6 6 6 7 9 11 12 12 12 12 13 13 11 9 9 6 4 2 2 6 11 16 20 21 22
7 8 9 11 13 12 11 10 7 2 3 2 3 3 1 3 3 4 3 5 7 5 2 3 3 3 2 2 3 6 7 7 6 4 5 6 6 6 6 5 5 7 9 11 12 14 14 14 14 15 14 13 11 7 5 4 2 2 8 13 16 17 17
7 6 6 8 11 12 11 9 8 6 5 4 3 3 4 5 4 4 3 4 6 6 3 3 2 3 4 3 3 5 7 7 6 5 5 5 6 6 6 6 6 7 9 10 12 14 15 15 16 15 15 14 12 8 6 6 4 2 3 7 10 12 12
5 7 11 12 12 13 12 10 9 7 5 6 5 5 6 5 4 4 5 5 6 6 6 4 3 3 5 5 4 4 6 7 7 6 5 6 6 6 6 7 7 9 11 11 12 14 15 15 15 15 15 15 13 12 11 9 7 6 5 4 4 5 5
7 10 14 12 10 11 11 12 12 9 7 7 4 8 10 7 5 5 5 6 7 6 7 7 5 4 6 6 6 5 5 5 6 6 6 6 6 6 7 8 9 11 12 13 14 15 15 14 15 16 16 15 15 14 13 12 11 9 9 8 7 6 5
8 9 8 5 4 7 8 10 13 13 12 10 4 9 11 7 6 6 7 7 7 7 8 8 7 6 6 7 7 6 6 6 6 7 7 7 7 7 8 9 10 12 13 14 15 14 13 14 15 17 17 16 15 15 14 15 14 13 11 10 10 9 8
11 12 10 6 5 7 9 12 15 13 12 11 4 9 12 8 5 6 7 8 7 8 9 8 8 8 8 8 7 7 7 7 7 8 9 8 8 9 10 10 10 12 13 14 14 14 13 13 15 17 16 15 14 15 16 16 16 15 13 12 12 11 10
15 15 14 10 9 11 12 14 16 14 13 11 3 8 11 9 7 6 7 7 6 6 7 8 9 8 8 8 8 8 7 8 8 9 10 12 11 11 12 12 12 13 13 13 13 13 12 13 14 15 14 13 12 13 14 14 13 13 12 11 11 11 10
14 14 13 12 12 13 13 14 15 15 15 11 3 7 9 9 9 8 7 6 5 5 6 8 8 8 8 7 8 8 8 8 9 10 12 14 14 14 14 16 15 15 16 17 17 16 14 14 14 13 12 12 11 11 11 11 11 10 10 10 10 8 7

ECMWFFLT2_925_spd_036.txt.gz
Wind_Speed
18 21 19 18 15 9 9 12 13 12 11 10 8 5 4 4 7 7 8 9 8 6 7 8 9 9 11 13 14 14 14 14 14 12 13 15 15 16 17 17 18 20 20 21 25 27 28 30 31 33 33 34 33 32 31 32 32 32 33 34 33 32 32
19 19 20 20 18 12 8 11 13 11 11 11 8 7 6 7 9 8 9 12 11 8 7 8 14 14 12 13 14 14 14 13 13 13 13 15 16 16 18 18 18 18 19 20 24 27 29 31 32 34 35 35 34 33 32 33 33 33 34 34 33 33 33
18 18 18 17 19 19 12 9 11 11 10 10 8 7 8 9 9 8 11 13 10 9 6 4 10 15 14 14 13 13 14 14 13 14 14 16 15 15 16 16 16 17 19 21 25 29 31 33 33 34 35 34 33 33 33 33 35 36 35 33 33 33 33
17 15 14 13 15 19 15 10 11 11 8 8 9 8 7 8 8 7 9 11 8 8 9 8 8 10 11 13 13 13 14 14 14 13 14 14 14 14 14 15 16 18 20 23 27 30 31 32 31 31 32 33 33 33 33 33 33 33 34 33 33 34 34
16 12 13 15 15 15 14 12 12 12 9 7 8 9 8 8 8 7 7 7 4 1 5 11 12 11 11 11 11 12 13 14 14 14 13 13 13 14 15 15 17 19 19 22 26 28 28 28 28 28 30 32 33 32 32 33 33 32 34 34 33 34 34
13 12 13 17 17 16 15 12 12 13 11 9 8 9 10 9 8 7 6 6 3 3 3 5 7 9 10 10 11 11 11 12 12 12 12 11 11 13 14 14 15 16 16 17 21 24 25 26 28 29 29 30 31 32 33 33 33 33 34 35 34 33 33
10 12 15 18 19 19 18 14 13 13 12 11 9 8 8 9 9 8 7 7 3 5 5 2 1 4 6 7 9 9 9 10 9 9 9 8 8 9 10 11 11 11 12 14 17 21 24 26 28 29 29 29 30 32 32 32 33 34 34 34 34 33 33
8 9 12 16 19 19 17 15 15 15 15 13 10 8 7 7 10 9 7 8 5 5 4 3 4 5 5 5 6 7 7 7 7 7 6 5 6 7 8 9 9 9 10 12 15 17 20 24 26 28 29 30 30 31 32 32 33 35 35 34 33 33 33
8 8 10 13 17 16 13 13 17 17 18 18 14 11 8 8 10 11 9 7 4 5 5 4 4 5 4 3 4 4 4 5 5 4 2 3 4 5 7 8 9 11 11 12 14 14 16 21 25 27 28 30 30 31 33 33 33 34 34 33 33 34 34
11 11 9 8 11 14 11 12 19 21 21 22 16 10 10 9 10 12 10 6 3 7 7 6 6 6 4 3 2 2 3 4 4 2 1 2 4 5 7 8 9 11 11 11 13 14 16 21 24 25 27 29 30 30 32 33 32 32 33 33 33 33 33
5 3 2 3 2 11 16 17 20 20 21 22 16 11 10 9 9 11 11 8 5 8 9 8 7 6 3 2 3 4 3 1 0 1 0 2 4 5 6 7 8 9 10 12 14 14 16 21 23 24 26 27 27 28 30 31 31 31 32 33 33 33 33
2 3 4 5 3 7 15 18 20 20 20 21 19 15 12 9 9 10 10 12 11 9 10 8 5 3 3 3 5 6 3 3 3 2 2 3 5 6 6 7 8 10 11 12 13 14 16 20 23 24 26 27 27 28 29 30 30 30 31 32 33 33 32
2 2 2 2 1 2 5 10 14 17 19 21 20 18 16 13 10 8 7 12 14 12 11 10 7 6 6 6 7 7 6 6 5 3 5 7 5 7 7 8 9 10 11 11 12 13 15 18 22 24 25 26 27 28 29 29 30 30 30 31 33 33 32
3 4 2 1 1 2 4 7 9 11 14 16 16 16 17 17 15 12 11 13 13 12 12 13 12 10 10 9 9 10 12 13 11 8 9 10 7 5 5 7 9 9 9 10 11 12 13 15 20 23 23 25 27 29 29 29 30 31 30 31 32 32 32
5 5 4 4 3 4 6 9 10 11 12 13 13 12 13 15 14 14 15 14 12 10 9 10 10 8 8 8 10 12 13 15 16 14 13 11 10 9 7 5 7 6 7 8 10 12 14 16 19 22 23 25 27 28 28 28 30 31 30 30 31 32 33
6 6 6 6 5 6 10 12 13 14 13 13 12 11 12 12 12 14 15 13 10 8 8 8 8 9 10 11 12 12 12 14 16 15 14 13 12 12 12 7 4 5 6 8 10 12 14 16 20 23 23 24 25 27 28 29 29 29 29 30 30 31 31
5 6 5 4 4 7 11 12 15 17 16 14 14 13 14 14 13 13 12 10 8 8 9 10 10 11 13 13 12 12 12 13 15 16 15 15 15 15 14 11 6 5 5 7 9 11 12 15 20 23 24 24 26 27 27 26 25 26 29 30 29 28 28
4 4 2 3 6 9 6 3 7 14 16 16 16 15 15 15 14 12 11 9 8 8 8 8 8 9 10 11 11 11 11 10 12 14 15 15 15 15 14 13 10 6 5 5 7 9 11 14 17 20 24 26 26 25 25 25 25 26 28 29 27 25 26
5 2 2 7 8 5 2 4 3 4 8 10 11 11 12 13 13 14 14 12 11 10 9 8 9 10 10 11 11 11 12 10 9 12 13 13 14 14 13 13 11 6 5 5 6 7 9 12 14 17 22 24 23 23 24 26 28 28 28 28 27 25 26
5 4 6 8 3 2 2 3 4 3 5 6 7 11 14 13 10 9 10 10 10 11 11 10 10 10 9 9 9 11 13 12 11 13 14 14 14 12 10 8 7 5 5 7 7 7 8 10 13 16 18 20 21 22 24 26 27 27 27 27 27 27 27
6 6 7 7 3 3 4 5 5 3 4 4 3 8 8 5 1 1 4 7 9 10 9 8 7 8 8 8 9 13 16 15 14 14 13 12 10 8 7 7 7 7 8 9 9 9 10 12 13 14 15 17 19 21 23 24 25 26 27 27 28 28 28
6 6 7 7 7 7 5 6 7 5 3 3 2 4 3 6 5 1 2 4 6 8 6 5 5 6 7 9 8 10 13 13 11 10 9 7 7 6 6 7 8 8 9 9 10 10 11 12 12 12 13 16 18 19 21 23 24 24 26 27 28 29 28
7 8 8 8 7 4 3 7 8 6 3 2 2 4 5 5 6 2 2 3 5 5 5 5 4 4 8 9 4 5 8 5 3 4 4 4 4 5 6 7 8 8 9 10 11 12 11 11 11 12 13 15 17 19 20 21 22 23 26 28 27 26 24
7 8 8 6 6 2 4 5 6 6 3 2 4 6 4 5 5 3 2 4 5 5 5 5 4 5 6 5 4 8 10 7 5 4 4 4 5 5 5 6 7 8 9 9 10 10 8 7 8 10 13 15 16 17 18 20 21 22 24 23 21 21 21
8 10 8 6 5 3 2 4 4 4 1 3 5 4 2 3 0 2 2 5 5 5 5 5 4 5 6 8 9 9 9 7 5 5 5 5 4 5 5 6 7 7 6 5 6 4 2 2 6 8 11 13 14 14 16 17 19 18 18 17 17 19 21
8 8 8 7 6 1 1 6 5 1 3 4 1 0 1 2 2 1 2 5 4 4 6 6 6 8 10 12 12 10 9 8 6 5 6 6 5 6 6 7 6 6 4 4 4 4 3 0 3 6 9 11 12 13 14 15 17 16 14 15 17 19 22
7 8 8 8 6 2 7 5 3 4 4 3 5 3 2 2 3 3 3 3 3 4 6 7 8 10 11 11 11 10 9 8 6 4 5 6 6 6 6 7 8 7 4 4 5 6 5 4 2 3 7 9 10 11 12 12 14 14 12 13 16 18 20
5 9 8 3 2 4 8 6 3 3 6 7 8 6 4 2 2 4 3 3 3 5 7 8 9 9 10 9 10 9 9 8 6 4 4 4 5 5 5 6 8 7 4 4 7 8 8 7 6 4 4 8 9 8 6 5 8 10 10 10 13 15 17
4 7 6 7 10 9 7 6 6 9 12 10 8 8 7 4 3 4 4 4 5 6 7 8 8 8 8 8 8 8 7 6 5 4 3 3 3 3 4 5 6 6 5 6 7 8 9 10 9 8 7 6 7 6 5 4 4 7 8 9 11 12 14
7 9 10 10 13 13 10 8 8 10 11 11 9 8 7 6 5 4 4 5 5 5 5 6 6 6 6 6 6 6 6 5 4 3 2 1 2 3 4 5 5 5 6 7 8 9 11 10 10 10 10 9 8 6 4 2 3 4 7 9 10 11 12
7 6 7 9 12 13 12 11 10 10 10 10 9 8 8 7 7 6 4 4 4 3 3 4 4 3 3 4 5 4 3 3 2 2 1 2 3 4 5 5 5 5 6 7 8 10 11 11 10 10 10 10 8 5 3 2 1 3 5 7 9 10 11
8 8 10 12 15 16 15 13 10 9 9 11 11 10 9 8 7 6 4 2 1 1 1 2 3 2 3 5 5 3 2 2 2 2 2 3 4 5 6 7 6 6 7 7 8 9 10 10 11 11 11 10 9 7 5 3 2 3 5 6 7 8 9
10 11 12 13 14 15 16 14 9 6 7 10 13 13 12 10 9 7 4 1 2 2 2 2 3 3 4 5 6 4 3 4 4 4 4 4 4 6 7 8 8 7 7 8 9 10 10 10 10 10 11 10 10 9 8 6 5 6 7 6 7 7 7
9 9 9 9 9 10 10 9 7 8 9 11 13 14 13 12 10 9 6 2 3 3 3 3 3 3 4 5 5 4 4 5 5 5 5 4 4 5 6 7 8 9 8 8 9 10 10 10 10 10 10 10 10 10 9 8 8 9 10 10 9 8 7
11 11 11 9 8 10 11 11 12 12 12 12 13 14 14 13 11 9 7 3 3 4 4 4 4 4 4 4 4 4 5 5 5 6 6 5 5 6 7 8 8 8 8 8 9 10 10 10 10 10 10 10 10 10 9 8 7 8 9 9 9 9 8
14 15 14 12 11 14 15 15 15 13 12 13 13 14 14 13 10 8 7 3 2 5 4 3 4 4 4 4 4 5 6 6 6 6 7 7 7 8 9 9 9 9 8 8 9 9 9 9 10 10 10 10 10 10 9 8 7 8 8 7 8 8 8
13 13 13 12 14 16 16 16 16 15 14 14 14 14 14 13 11 8 5 2 2 5 5 3 4 5 5 4 5 6 7 6 6 6 7 8 9 10 10 10 10 10 10 9 9 9 10 10 11 11 11 11 11 10 10 9 9 9 8 8 7 7 7